This demonstration page uses our WeatherBlox Daily Observations layout. Learn more.

Hourly Observations for April 1, 2018

Temp ( °F °C ) Dew Point ( °F °C ) Humidity (%) Winds ( mph kmh ) Pressure ( in mb ) Visibility ( mi km ) Precip ( " mm )
12:15 am 00:15 Cloudy 28 -2 13 -10.5 53 53 N 6 9 30.45 1031 10 16.0934 0 0
12:35 am 00:35 Cloudy 28 -2 12 -11.1 50 50 NNE 10 17 30.45 1031 10 16.0934 0 0
12:55 am 00:55 Cloudy 28 -2 11 -11.8 47 47 NNE 20 31 30.45 1031 10 16.0934 0 0
1:15 am 01:15 Cloudy 26 -3.6 18 -7.9 72 72 N 17 28 30.45 1031 10 16.0934 0 0
1:35 am 01:35 Cloudy with Light Snow 24 -4.4 20 -6.9 83 83 N 16 26 30.48 1032 2.5 4.02335 0 0
1:55 am 01:55 Cloudy with Snow 23 -5 21 -6 93 93 NNE 14 22 30.48 1032 0.75 1.207005 0 0
2:15 am 02:15 Cloudy with Snow 23 -5.1 22 -5.6 96 96 NNE 13 20 30.48 1032 0.75 1.207005 0 0
2:35 am 02:35 Cloudy with Snow 22 -5.4 22 -5.8 97 97 NNE 10 17 30.48 1032 1 1.60934 0.01 0.254
2:55 am 02:55 Cloudy with Snow 22 -5.5 22 -5.8 98 98 NNE 10 17 30.48 1032 0.75 1.207005 0.01 0.254
3:15 am 03:15 Cloudy with Snow 22 -5.5 22 -5.8 98 98 NNE 10 17 30.48 1032 0.75 1.207005 0.01 0.254
3:35 am 03:35 Cloudy with Light Snow 22 -5.6 22 -5.8 99 99 NE 7 11 30.45 1031 1.5 2.41401 0.01 0.254
3:55 am 03:55 Cloudy with Light Snow 22 -5.8 21 -6 99 99 NE 8 13 30.45 1031 1.75 2.816345 0.02 0.508
4:15 am 04:15 Cloudy with Light Snow 22 -5.8 21 -6 99 99 NE 10 17 30.45 1031 4 6.43736 0.01 0.254
4:35 am 04:35 Cloudy with Snow 22 -5.8 21 -6.1 98 98 NE 9 15 30.42 1030 1 1.60934 0.02 0.508
4:55 am 04:55 Cloudy with Light Snow 22 -5.8 21 -6 99 99 NE 8 13 30.42 1030 1.5 2.41401 0.02 0.508
5:15 am 05:15 Cloudy with Light Snow 22 -5.8 21 -6 99 99 NE 7 11 30.42 1030 1.75 2.816345 0 0
5:35 am 05:35 Cloudy with Light Snow 22 -5.8 21 -6 99 99 NE 6 9 30.42 1030 3 4.82802 0 0
5:55 am 05:55 Cloudy with Light Snow 21 -6 21 -6.3 98 98 NE 7 11 30.42 1030 4 6.43736 0 0
6:15 am 06:15 Cloudy with Light Snow 21 -6 21 -6.3 98 98 ENE 7 11 30.42 1030 4 6.43736 0.01 0.254
6:35 am 06:35 Cloudy with Light Snow 21 -6 21 -6.2 99 99 NE 7 11 30.42 1030 5 8.0467 0.02 0.508
6:55 am 06:55 Cloudy with Light Snow 21 -6.1 20 -6.5 97 97 ENE 8 13 30.42 1030 3 4.82802 0.03 0.762
7:15 am 07:15 Cloudy with Light Snow 21 -6.1 20 -6.5 97 97 ENE 5 7 30.45 1031 1.5 2.41401 0 0
7:35 am 07:35 Cloudy with Light Snow 21 -6.2 20 -6.5 98 98 ENE 7 11 30.45 1031 1 1.60934 0 0
7:55 am 07:55 Cloudy with Light Snow 21 -6.2 20 -6.5 98 98 ENE 6 9 30.45 1031 1.25 2.011675 0 0
8:15 am 08:15 Cloudy with Light Snow 21 -6.2 20 -6.5 98 98 ENE 6 9 30.45 1031 1.25 2.011675 0 0
8:35 am 08:35 Cloudy with Light Snow 21 -6.2 20 -6.5 98 98 E 6 9 30.45 1031 1.25 2.011675 0.01 0.254
8:55 am 08:55 Cloudy with Light Snow 21 -6.2 20 -6.6 97 97 E 6 9 30.45 1031 1.25 2.011675 0.01 0.254
9:15 am 09:15 Cloudy with Light Snow 21 -6.1 20 -6.5 97 97 E 5 7 30.45 1031 1 1.60934 0.02 0.508
9:35 am 09:35 Cloudy with Light Snow 21 -6 20 -6.5 96 96 E 5 7 30.45 1031 0.75 1.207005 0.03 0.762
9:55 am 09:55 Cloudy with Light Snow 21 -6.1 20 -6.6 96 96 E 5 7 30.45 1031 0.75 1.207005 0.04 1.016
10:15 am 10:15 Cloudy with Light Snow 21 -6 20 -6.5 96 96 Calm 30.45 1031 0.75 1.207005 0.03 0.762
10:35 am 10:35 Cloudy with Light Snow 21 -6 20 -6.5 96 96 SE 3 6 30.45 1031 0.75 1.207005 0.05 1.27
10:55 am 10:55 Cloudy with Light Snow 21 -6 20 -6.7 95 95 ESE 6 9 30.45 1031 0.75 1.207005 0.07 1.778
11:15 am 11:15 Cloudy with Light Snow 21 -6 20 -6.8 94 94 ESE 7 11 30.45 1031 0.75 1.207005 0.01 0.254
11:35 am 11:35 Cloudy with Light Snow 22 -5.6 20 -6.6 93 93 E 7 11 30.45 1031 1.25 2.011675 0.02 0.508
11:55 am 11:55 Cloudy with Light Snow 22 -5.5 20 -6.7 91 91 E 8 13 30.45 1031 2.5 4.02335 0.03 0.762
12:15 pm 12:15 Cloudy with Light Snow 22 -5.3 20 -6.7 90 90 E 6 9 30.45 1031 4 6.43736 0 0
12:35 pm 12:35 Cloudy with Light Rain 22 -5.3 19 -7 88 88 E 5 7 30.45 1031 7 11.26538 0.01 0.254
12:55 pm 12:55 Cloudy with Light Rain 23 -4.8 20 -6.8 86 86 ESE 3 6 30.42 1030 10 16.0934 0.01 0.254
1:15 pm 13:15 Cloudy 24 -4.7 19 -7.3 82 82 ESE 5 7 30.42 1030 10 16.0934 0 0
1:35 pm 13:35 Mostly Cloudy 24 -4.7 19 -7.4 82 82 Calm 30.42 1030 10 16.0934 0 0
1:55 pm 13:55 Mostly Cloudy 24 -4.4 19 -7.4 80 80 Calm 30.36 1028 10 16.0934 0 0
2:15 pm 14:15 Mostly Cloudy 24 -4.3 19 -7 82 82 ENE 3 6 30.36 1028 10 16.0934 0 0
2:35 pm 14:35 Partly Cloudy 24 -4.5 19 -7.4 80 80 SE 5 7 30.33 1027 10 16.0934 0 0
2:55 pm 14:55 Mostly Cloudy 24 -4.2 19 -7.1 80 80 ESE 3 6 30.33 1027 10 16.0934 0 0
3:15 pm 15:15 Mostly Cloudy 25 -4.1 19 -7.4 78 78 SE 5 7 30.3 1026 10 16.0934 0 0
3:35 pm 15:35 Partly Cloudy 25 -4.1 19 -7.2 79 79 Calm 30.3 1026 10 16.0934 0 0
3:55 pm 15:55 Partly Cloudy 25 -4.1 19 -7.4 78 78 ESE 3 6 30.3 1026 10 16.0934 0 0
4:15 pm 16:15 Partly Cloudy 25 -4.1 19 -7.3 79 79 ESE 5 7 30.27 1025 10 16.0934 0 0
4:35 pm 16:35 Sunny 25 -4.1 19 -7.3 79 79 SE 3 6 30.27 1025 10 16.0934 0 0
4:55 pm 16:55 Sunny 25 -4.1 19 -7 80 80 ESE 3 6 30.27 1025 10 16.0934 0 0
5:15 pm 17:15 Sunny 25 -4 20 -6.9 80 80 ESE 5 7 30.27 1025 10 16.0934 0 0
5:35 pm 17:35 Sunny 25 -4 19 -7 80 80 E 6 9 30.27 1025 10 16.0934 0 0
5:55 pm 17:55 Sunny 25 -4.1 19 -7 80 80 E 6 9 30.27 1025 10 16.0934 0 0
6:15 pm 18:15 Sunny 24 -4.2 19 -7 81 81 ESE 7 11 30.27 1025 10 16.0934 0 0
6:35 pm 18:35 Sunny 24 -4.5 19 -7.1 82 82 ESE 8 13 30.24 1024 10 16.0934 0 0
6:55 pm 18:55 Cloudy 33 0.8 16 -8.9 49 49 NNE 18 30 30.33 1027 10 16.0934 0 0
7:15 pm 19:15 Sunny 23 -5 19 -7.1 85 85 E 8 13 30.24 1024 10 16.0934 0 0
7:35 pm 19:35 Sunny 22 -5.5 19 -7.4 87 87 E 8 13 30.21 1023 10 16.0934 0 0
7:55 pm 19:55 Sunny 21 -6 19 -7.5 89 89 ESE 10 17 30.24 1024 10 16.0934 0 0
8:15 pm 20:15 Clear 20 -6.6 18 -8 90 90 ESE 8 13 30.24 1024 10 16.0934 0 0
8:35 pm 20:35 Clear 20 -6.7 18 -8 91 91 SE 10 17 30.21 1023 10 16.0934 0 0
8:55 pm 20:55 Clear 19 -7.3 17 -8.5 91 91 SE 12 19 30.21 1023 10 16.0934 0 0
9:15 pm 21:15 Clear 19 -7.5 16 -8.7 91 91 SE 10 17 30.21 1023 10 16.0934 0 0
9:35 pm 21:35 Clear 18 -7.8 16 -8.8 93 93 SE 8 13 30.24 1024 10 16.0934 0 0
9:55 pm 21:55 Clear 17 -8.1 16 -9.1 93 93 SE 9 15 30.24 1024 10 16.0934 0 0
10:15 pm 22:15 Clear 19 -7.5 17 -8.4 93 93 SSE 7 11 30.24 1024 10 16.0934 0 0
10:35 pm 22:35 Clear 19 -7.2 18 -7.8 96 96 S 6 9 30.24 1024 10 16.0934 0 0
10:55 pm 22:55 Clear 20 -6.7 18 -7.6 93 93 SSE 9 15 30.24 1024 10 16.0934 0 0
11:15 pm 23:15 Clear 22 -5.7 19 -7 91 91 SE 9 15 30.18 1022 10 16.0934 0 0
11:35 pm 23:35 Clear 21 -6.2 19 -7.5 91 91 SSE 9 15 30.21 1023 10 16.0934 0 0
11:55 pm 23:55 Clear 20 -6.5 19 -7.5 93 93 SSE 9 15 30.21 1023 10 16.0934 0 0

Powered by AerisWeather